Find Starlink 34931

NORAD ID: 65398 Int'l Des: 2025-191 Owner: SPXS Country: US Constellation: starlink operational
LEOCIRCULARRETROGRADESSO

Live Position

Loading 3D Globe...

About Starlink 34931

Description loading...

Upcoming Passes

Passes for default location (London). Set your location on the main map for personalized predictions.

Altitude History

Loading altitude history...

Two-Line Element Set

1 65398U 25191V 26106.88382719 .00003353 00000-0 23643-3 0 9995
2 65398 97.6039 339.1273 0002627 75.7596 284.3922 15.05654298 36016
Epoch: Apr 16, 2026 • Age: 3 hours

Current Status

Altitude 562.7 km
Velocity 7.58 km/s
Sub-Earth Point -33.24°S, 135.29°E
Launch Date Aug 30, 2025
Age 0.6 years
Type internet

Technical Details

Classification Payload
Mass 575.00 kg
Dry Mass 530.00 kg
Total Mass 575.00 kg
Length 0.30 m
Diameter 4.10 m
Span 29.00 m
Shape Box + pan
Manufacturer SPXS
Bus Type Starlink V2MO
Phase Status In Orbit
Owner/State SPXS/US

Most Searched